Aeroporto :
LOGIN :

Iscrizione | Disclaimer

   EN    FR    IT 

 










Sommario :    VFR   VFR Marginale   IFR   IFR Intensivo   IFR Molto Intensivo
Visibilità : 
Base nubi : 
>= 8 km
>= 3000ft
5 / 8 km
1000 / 3000 ft
1500m / 5 km
500 / 1000 ft
800 / 1500m
200 / 500 ft
< 800m
< 200 ft
Simboli :   Temporali  Nebbia  Neve Forte  Precipitazioni Forti  Vento > 20 kt
SIGMETs :   Varie  Temporali  Ghiacco  Turbolenza  Onda orograficha  Ceneri Vulcaniche







- Altitudine del aeroporto : 1411 ft
- Codice IATA : GVA


LSGG - Genève Cointrin

ULTIMO METAR :
  • 210720Z VRB01KT 9000 FEW045 BKN075 M01/M03 Q1017 NOSIG

METARs OBSOLETI :
  • 210650Z 00000KT 9000 FEW045 BKN075 M01/M03 Q1017 NOSIG
  • 210620Z VRB01KT 9000 FEW050 BKN075 M01/M03 Q1016 NOSIG
  • 210550Z VRB01KT 9000 BKN075 M02/M03 Q1016 NOSIG
  • 210520Z 28002KT 6000 FEW075 M02/M03 Q1016 NOSIG
  • 210450Z 26002KT 6000 NSC M01/M02 Q1016 NOSIG

TAF TAF LSGG
Valido dal 21 a 06 ore il 22 a 12 ore UTC


210525Z 2106/2212 05005KT 6000 SCT040 TX03/2115Z TN00/2106Z TN00/2206Z
PROB30
TEMPO 2204/2206 4500 FZFG
ATIS : +41 22 417 40 81
Nessun NOTAM noto per questo aeroporto.



MetMap, La meteo Aeronautica in un colpo d'occhio ! - Copyright ORBIFLY Dicembre 2007 - Disclaimer

ORBIFLY MET'MAP TEAM :

Programmazione e sviluppo : Alexandra Zaïnal
Concezione e sviluppo : Baudouin d'Aumeries
Co-Programmazione e sviluppo : Marc-Olivier Méhu
Supporto tecnico e logistico : Manuel Goepfert
Aiuto per la traduzione : Arnaldo La Scala

Contatto : metmap@orbifly.com




FONTI E CREDITI :

   NOAA